IXPE

Last updated on Mon Oct 20 2025 00:03:35 GMT+0000 (Coordinated Universal Time)

1 49954U 21121A 25292.33336806 .00010061 00000+0 59310-3 0 9998 2 49954 0.2304 335.0298 0007757 44.2510 213.3912 15.07047343 5284
UTC large
Height (km)
Speed (km/s)
/
Latitude / Longitude
Inclination (degrees)
Orbital Period (minutes)
Azimuth
Elevation
Range (km)
Doppler Factor

Next 0 passes for location: London (51.5072 / 0.1276)

Sorry there are no passes over London.